Location: *
(45.0500°N, 12.0500°E)
Time: 22:58:35
(UTC+00:00)

Cosmos 1980 Rocket - Pass Details

Date: 09 April 2020
Orbit: 828 x 851 km, 71.0° (Epoch: 03 June)

Event Time Altitude Azimuth Distance (km) Brightness Sun altitude
Rises 21:37:59 0° 332° (NNW) 3,388 6.4 -32.8°
Reaches altitude 10° 21:40:26 10° 331° (NNW) 2,453 5.4 -33.0°
Enters shadow 21:44:26 47° 317° (NW) 1,095 3.0 -33.3°
